This is the latest recevied weather packets stored in our database for station/object KO6MEX-13. If no packets are shown the sender has not sent any weather packets the latest 10 day(s).
| Time | Temp. | Humidity | Pressure | Rain* | Wind** | Luminosity | Snow |
|---|---|---|---|---|---|---|---|
| 1777174274 | 11.67° C | 93% | 1015.3 hPa | 0 mm | - | 0 W/m² | - |
| 1777173970 | 11.67° C | 92% | 1015.5 hPa | 0 mm | - | 0 W/m² | - |
| 1777173668 | 11.67° C | 93% | 1015.3 hPa | 0 mm | - | 0 W/m² | - |
| 1777173367 | 11.67° C | 93% | 1015.1 hPa | 0 mm | - | 0 W/m² | - |
| 1777173062 | 11.67° C | 93% | 1015.1 hPa | 0 mm | - | 0 W/m² | - |
| 1777172760 | 11.67° C | 93% | 1015 hPa | 0 mm | - | 0 W/m² | - |
| 1777172456 | 11.67° C | 93% | 1015.2 hPa | 0 mm | - | 0 W/m² | - |
| 1777172151 | 11.67° C | 93% | 1015.1 hPa | 0 mm | - | 0 W/m² | - |
| 1777171848 | 11.67° C | 93% | 1014.9 hPa | 0 mm | - | 0 W/m² | - |
| 1777171544 | 11.67° C | 92% | 1015 hPa | 0 mm | - | 0 W/m² | - |
| 1777171240 | 11.67° C | 93% | 1014.9 hPa | 0 mm | - | 0 W/m² | - |
| 1777170938 | 11.67° C | 92% | 1015.1 hPa | 0 mm | - | 0 W/m² | - |
| 1777170635 | 11.67° C | 91% | 1015.1 hPa | 0 mm | - | 1 W/m² | - |
| 1777170331 | 11.67° C | 91% | 1014.9 hPa | 0 mm | - | 2 W/m² | - |
| 1777170029 | 11.67° C | 91% | 1015.1 hPa | 0 mm | - | 3 W/m² | - |
| 1777169726 | 11.67° C | 91% | 1015.1 hPa | 1.78 mm | - | 5 W/m² | - |
| 1777169422 | 11.67° C | 91% | 1014.9 hPa | 1.78 mm | - | 5 W/m² | - |
| 1777169121 | 11.67° C | 92% | 1015 hPa | 0 mm | - | 6 W/m² | - |
| 1777168817 | 11.67° C | 91% | 1015.3 hPa | 0 mm | - | 7 W/m² | - |
| 1777168514 | 11.67° C | 91% | 1015.1 hPa | 1.27 mm | - | 10 W/m² | - |
| 1777168211 | 12.22° C | 90% | 1015.1 hPa | 1.27 mm | - | 10 W/m² | - |
| 1777167909 | 12.22° C | 91% | 1015.1 hPa | 0 mm | - | 8 W/m² | - |
| 1777167603 | 12.22° C | 91% | 1015 hPa | 0 mm | - | 11 W/m² | - |
| 1777167299 | 12.22° C | 90% | 1015.1 hPa | 0 mm | - | 17 W/m² | - |
| 1777166995 | 12.22° C | 90% | 1015.3 hPa | 1.78 mm | - | 26 W/m² | - |
* Rain latest hour (hover to see other rain measurements)
** Current wind speed in m/s (hover to see current wind gust speed)